EW7772 Weather Reports


Display with metric or nautical units.
time (UTC)temp
F
wind
direction
speed
MPH
gust
MPH
rain 1hr
in
rain 24hr
in
rain mn
in
humidity
%
barometer
mb
20240521013030 56 63 0.0 0.0 0.00 0.00 0.00 85 1005.7
20240521011532 56 63 0.0 0.0 0.00 0.00 0.00 86 1005.8
20240521010032 56 63 0.0 0.0 0.00 0.00 0.00 86 1005.9
20240521004538 56 63 0.0 0.0 0.00 0.00 0.00 85 1006.0
20240521003024 57 63 0.0 0.0 0.00 0.00 0.00 84 1006.1
20240521001522 57 63 0.0 0.0 0.00 0.00 0.00 84 1006.2
20240521000019 58 63 0.0 0.0 0.00 0.00 0.00 83 1006.3
20240520234521 58 63 0.0 0.0 0.00 0.00 0.00 82 1006.4
20240520233014 59 63 0.0 0.0 0.00 0.00 0.00 81 1006.6
20240520231512 59 63 0.0 0.0 0.00 0.00 0.00 80 1006.9
20240520230012 59 63 0.0 0.0 0.00 0.00 0.00 79 1007.0
20240520224509 59 63 0.0 0.0 0.00 0.00 0.00 78 1007.2
20240520223012 59 63 0.0 0.0 0.00 0.00 0.00 78 1007.4
20240520221508 59 63 0.0 0.0 0.00 0.00 0.00 78 1007.5
20240520220003 59 63 0.0 0.0 0.00 0.00 0.00 77 1007.7
20240520214505 60 63 0.0 0.0 0.00 0.00 0.00 77 1007.7
20240520213004 60 63 0.0 0.0 0.00 0.00 0.00 77 1007.8
20240520211503 60 63 0.0 0.0 0.00 0.00 0.00 76 1007.8
20240520210002 61 63 0.0 0.0 0.00 0.00 0.00 75 1007.8
20240520204502 61 63 0.0 0.0 0.00 0.00 0.00 74 1007.8
20240520203001 61 63 0.0 0.0 0.00 0.00 0.00 73 1007.9
20240520193048 64 63 0.0 0.0 0.00 0.00 0.00 69 1007.8
20240520191554 65 63 0.0 0.0 0.00 0.00 0.00 66 1007.7
20240520190046 66 63 0.0 0.0 0.00 0.00 0.00 62 1007.7
20240520184547 67 63 0.0 0.0 0.00 0.00 0.00 60 1007.7
20240520183046 68 63 0.0 0.0 0.00 0.00 0.00 58 1007.7
20240520181548 69 63 0.0 1.0 0.00 0.00 0.00 57 1007.7
20240520180045 70 63 0.0 1.0 0.00 0.00 0.00 57 1007.8
20240520174544 70 63 0.0 2.0 0.00 0.00 0.00 55 1007.9
20240520173044 71 62 0.0 1.0 0.00 0.00 0.00 55 1007.9
20240520171543 71 63 0.0 1.0 0.00 0.00 0.00 53 1007.8
20240520170107 72 86 0.0 3.0 0.00 0.00 0.00 54 1007.8
20240520164542 72 213 0.0 3.0 0.00 0.00 0.00 53 1007.7
20240520163049 73 14 0.0 1.0 0.00 0.00 0.00 53 1007.6
20240520161544 73 13 0.0 2.0 0.00 0.00 0.00 50 1007.6
20240520160040 74 11 0.0 3.0 0.00 0.00 0.00 49 1007.8
20240520154539 74 252 0.0 2.0 0.00 0.00 0.00 49 1007.8
20240520153042 73 56 0.0 2.0 0.00 0.00 0.00 50 1007.9
20240520151536 73 28 0.0 4.0 0.00 0.00 0.00 49 1008.0
20240520150037 74 47 0.0 2.0 0.00 0.00 0.00 48 1008.0
20240520144534 74 49 0.0 2.0 0.00 0.00 0.00 46 1008.2
20240520143037 74 84 0.0 2.0 0.00 0.00 0.00 50 1008.2
20240520141544 74 57 0.0 2.0 0.00 0.00 0.00 49 1008.3
20240520140036 75 307 0.0 2.0 0.00 0.00 0.00 48 1008.6
20240520134530 75 17 0.0 3.0 0.00 0.00 0.00 48 1008.8
20240520133026 75 38 0.0 1.0 0.00 0.00 0.00 46 1008.8
20240520131523 74 71 0.0 2.0 0.00 0.00 0.00 52 1009.0
20240520130036 74 57 0.0 4.0 0.00 0.00 0.00 48 1009.1
20240520124523 74 82 0.0 4.0 0.00 0.00 0.00 53 1009.3
20240520123020 73 95 0.0 2.0 0.00 0.00 0.00 53 1009.6
20240520121516 74 94 0.0 3.0 0.00 0.00 0.00 50 1009.8
20240520120039 72 84 0.0 3.0 0.00 0.00 0.00 53 1010.1
20240520114520 72 82 0.0 2.0 0.00 0.00 0.00 47 1010.2
20240520113011 73 317 0.0 3.0 0.00 0.00 0.00 50 1010.4
20240520111510 72 331 0.0 3.0 0.00 0.00 0.00 50 1010.4
20240520110006 72 78 0.0 2.0 0.00 0.00 0.00 50 1010.5
20240520104505 72 82 0.0 3.0 0.00 0.01 0.00 52 1010.5
20240520103004 72 88 1.0 3.0 0.00 0.01 0.00 50 1010.6
20240520101502 71 90 0.0 2.0 0.00 0.01 0.00 51 1010.7
20240520100058 70 90 0.0 1.0 0.00 0.01 0.00 51 1010.7
20240520094556 70 104 0.0 2.0 0.00 0.01 0.00 55 1010.6
20240520093052 69 90 0.0 3.0 0.00 0.01 0.00 58 1010.7
20240520091550 69 84 1.0 3.0 0.00 0.01 0.00 58 1010.9
20240520090059 69 67 1.0 3.0 0.00 0.01 0.00 60 1010.8
20240520084549 68 30 1.0 4.0 0.00 0.01 0.00 61 1011.0
20240520083038 67 51 2.0 4.0 0.00 0.01 0.00 64 1010.9
20240520081534 65 314 0.0 2.0 0.00 0.01 0.00 69 1011.0
20240520080033 63 293 0.0 1.0 0.00 0.01 0.00 72 1011.2
20240520074525 61 293 0.0 3.0 0.00 0.01 0.00 75 1011.2
20240520073024 60 293 0.0 3.0 0.00 0.01 0.00 77 1011.3
20240520071518 58 293 0.0 0.0 0.00 0.01 0.00 81 1011.4
20240520070017 57 293 0.0 1.0 0.00 0.01 0.00 82 1011.4
20240520064508 56 293 0.0 0.0 0.00 0.01 0.00 83 1011.5
20240520063005 55 293 0.0 0.0 0.00 0.01 0.00 84 1011.6
20240520061502 55 293 0.0 0.0 0.00 0.01 0.00 85 1011.6
20240520060126 54 293 0.0 1.0 0.00 0.01 0.00 86 1011.7
20240520054555 52 293 0.0 1.0 0.00 0.01 0.00 88 1011.7
20240520053053 51 293 0.0 1.0 0.00 0.01 0.00 89 1011.8
20240520051552 50 293 0.0 0.0 0.00 0.01 0.00 91 1011.9
20240520050050 49 293 0.0 0.0 0.00 0.01 0.00 92 1011.9
20240520044549 49 284 0.0 0.0 0.00 0.01 0.00 93 1011.9
20240520043048 48 284 0.0 0.0 0.00 0.01 0.00 94 1011.9
20240520041549 48 284 0.0 0.0 0.00 0.01 0.00 94 1011.9
20240520040042 47 284 0.0 1.0 0.00 0.01 0.00 94 1011.8
20240520034541 47 284 0.0 0.0 0.00 0.01 0.00 93 1011.7
20240520033046 47 284 0.0 0.0 0.00 0.01 0.00 93 1011.7
20240520031547 48 284 0.0 0.0 0.00 0.01 0.00 93 1011.6
20240520030036 48 284 0.0 0.0 0.00 0.01 0.00 93 1011.7
20240520024539 48 284 0.0 0.0 0.00 0.01 0.00 93 1011.4
20240520023037 48 284 0.0 0.0 0.00 0.01 0.00 93 1011.5
20240520021539 48 284 0.0 0.0 0.00 0.01 0.00 93 1011.5
20240520020042 48 284 0.0 0.0 0.00 0.01 0.00 93 1011.5
20240520014533 48 284 0.0 0.0 0.00 0.01 0.00 93 1011.5